TimeEST,TemperatureF,Dew PointF,Humidity,Sea Level PressureIn,VisibilityMPH,Wind Direction,Wind SpeedMPH,Gust SpeedMPH,PrecipitationIn,Events,Conditions,WindDirDegrees,DateUTC
12:36 AM,33.8,30.2,87,29.46,3.0,NNE,4.6,-,0.01,Snow,Light Snow,20,2013-02-27 05:36:00
12:54 AM,33.1,30.9,92,29.49,5.0,North,3.5,-,0.01,,Overcast,10,2013-02-27 05:54:00
1:54 AM,33.1,32.0,96,29.49,6.0,North,4.6,-,N/A,,Overcast,350,2013-02-27 06:54:00
2:54 AM,33.1,30.9,92,29.49,6.0,NW,3.5,-,N/A,,Overcast,320,2013-02-27 07:54:00
3:54 AM,33.1,30.9,92,29.49,5.0,WNW,3.5,-,0.00,Snow,Light Snow,300,2013-02-27 08:54:00
4:28 AM,33.8,30.2,87,29.46,2.5,NW,3.5,-,0.00,Snow,Light Snow,310,2013-02-27 09:28:00
4:52 AM,33.8,30.2,87,29.46,3.0,NW,3.5,-,0.00,Snow,Light Snow,310,2013-02-27 09:52:00
4:54 AM,33.1,30.9,92,29.48,3.0,NW,3.5,-,0.00,Snow,Light Snow,310,2013-02-27 09:54:00
5:09 AM,33.8,30.2,87,29.46,4.0,NW,4.6,-,0.00,,Overcast,320,2013-02-27 10:09:00
5:28 AM,33.8,30.2,87,29.47,5.0,NW,3.5,-,0.00,,Overcast,310,2013-02-27 10:28:00
5:51 AM,33.8,30.2,87,29.47,2.5,WNW,3.5,-,0.00,Snow,Light Snow,290,2013-02-27 10:51:00
5:54 AM,33.1,30.9,92,29.49,2.5,West,3.5,-,0.00,Snow,Light Snow,280,2013-02-27 10:54:00
6:54 AM,33.1,30.9,92,29.51,2.0,WSW,4.6,-,0.00,,Overcast,250,2013-02-27 11:54:00
7:13 AM,32.0,30.2,93,29.50,1.8,WSW,4.6,-,0.00,Snow,Light Snow,250,2013-02-27 12:13:00
7:54 AM,33.1,30.9,92,29.53,1.2,SW,4.6,-,0.01,Snow,Light Snow,230,2013-02-27 12:54:00
8:54 AM,33.1,30.9,92,29.54,1.0,WSW,5.8,-,0.00,,Overcast,250,2013-02-27 13:54:00
9:54 AM,33.8,30.2,87,29.53,1.0,SW,8.1,-,N/A,Snow,Light Snow,230,2013-02-27 14:54:00
10:29 AM,33.8,30.2,87,29.54,0.5,SW,8.1,-,0.01,Fog-Snow,Snow,220,2013-02-27 15:29:00
10:54 AM,33.1,32.0,96,29.56,1.0,SW,8.1,-,0.01,Snow,Light Snow,220,2013-02-27 15:54:00
11:54 AM,34.0,32.0,92,29.56,2.0,WSW,9.2,-,0.01,Snow,Light Snow,240,2013-02-27 16:54:00
12:01 PM,33.8,32.0,93,29.54,3.0,SW,9.2,-,0.00,,Overcast,230,2013-02-27 17:01:00
12:40 PM,35.6,32.0,87,29.53,5.0,SW,9.2,-,0.00,Snow,Light Snow,220,2013-02-27 17:40:00
12:54 PM,35.1,32.0,89,29.56,3.0,SW,11.5,-,0.01,Snow,Light Snow,230,2013-02-27 17:54:00
1:18 PM,35.6,32.0,87,29.53,2.0,SW,10.4,-,0.00,Snow,Light Snow,230,2013-02-27 18:18:00
1:54 PM,35.1,33.1,92,29.55,2.0,WSW,9.2,-,0.01,Snow,Light Snow,240,2013-02-27 18:54:00
2:38 PM,33.8,32.0,93,29.53,2.0,West,8.1,-,0.02,Snow,Light Snow,260,2013-02-27 19:38:00
2:54 PM,34.0,32.0,92,29.56,2.0,West,5.8,-,0.02,Snow,Light Snow,260,2013-02-27 19:54:00
3:09 PM,33.8,32.0,93,29.54,1.0,WSW,6.9,-,0.01,Snow,Light Snow,240,2013-02-27 20:09:00
3:54 PM,34.0,32.0,92,29.57,1.0,WSW,9.2,-,0.03,Snow,Light Snow,240,2013-02-27 20:54:00
4:29 PM,33.8,30.2,87,29.56,1.0,West,9.2,-,N/A,Snow,Light Snow,260,2013-02-27 21:29:00
4:54 PM,33.1,30.9,92,29.58,1.0,WSW,8.1,-,0.02,Snow,Light Snow,240,2013-02-27 21:54:00
5:54 PM,33.1,30.9,92,29.60,1.0,WSW,6.9,-,0.01,Snow,Light Snow,240,2013-02-27 22:54:00
6:25 PM,33.8,30.2,87,29.58,1.0,WSW,6.9,-,0.02,Snow,Light Snow,240,2013-02-27 23:25:00
6:35 PM,33.8,30.2,87,29.58,0.8,WSW,6.9,-,0.03,Snow,Light Snow,240,2013-02-27 23:35:00
6:45 PM,33.8,30.2,87,29.59,1.5,WSW,6.9,-,0.04,Snow,Light Snow,240,2013-02-27 23:45:00
6:54 PM,33.1,30.9,92,29.61,1.8,WSW,6.9,-,0.04,Snow,Light Snow,240,2013-02-27 23:54:00
7:54 PM,33.1,30.9,92,29.62,1.8,WSW,6.9,-,0.01,Snow,Light Snow,250,2013-02-28 00:54:00
8:54 PM,33.8,30.2,87,29.60,1.8,West,6.9,-,N/A,,Overcast,260,2013-02-28 01:54:00
9:54 PM,33.1,30.9,92,29.63,1.8,West,6.9,-,0.01,Snow,Light Snow,270,2013-02-28 02:54:00
10:54 PM,33.1,32.0,96,29.63,1.8,WNW,5.8,-,0.00,,Overcast,300,2013-02-28 03:54:00
11:30 PM,33.8,32.0,93,29.61,3.0,NW,8.1,-,N/A,,Overcast,320,2013-02-28 04:30:00
11:54 PM,34.0,32.0,92,29.63,8.0,NNW,8.1,-,N/A,,Overcast,330,2013-02-28 04:54:00